SKW3486 KLAX-KSLC

Flight info

Callsign SKW3486
Flight time 1h 27m
Altitude 33000
Route ORCKA5 LAS Q70 BLIPP Q842 WINEN MLF QWENN6
Aircraft E75L/M-SDE3GILORVW/S

Departure

Time 2026-05-08 01:49
Airport Los Angeles International Airport (KLAX)

Arrival

Time 2026-05-08 03:16
Airport Salt Lake City International Airport (KSLC)
Time Latitude Longitude Altitude Speed Heading
2026-05-08 01:36 33.94665 -118.40490 118 ft 0 kts 98°
2026-05-08 01:41 33.94665 -118.40488 118 ft 0 kts 98°
2026-05-08 01:41 33.94665 -118.40492 119 ft 2 kts 100°
2026-05-08 01:41 33.94667 -118.40509 119 ft 2 kts 98°
2026-05-08 01:41 33.94669 -118.40520 119 ft 2 kts 92°
2026-05-08 01:42 33.94666 -118.40537 119 ft 2 kts 68°
2026-05-08 01:42 33.94658 -118.40552 119 ft 2 kts 46°
2026-05-08 01:42 33.94647 -118.40562 119 ft 2 kts 24°
2026-05-08 01:42 33.94632 -118.40567 119 ft 2 kts
2026-05-08 01:43 33.94624 -118.40566 119 ft 0 kts 353°
2026-05-08 01:43 33.94625 -118.40566 119 ft 0 kts 353°
2026-05-08 01:44 33.94628 -118.40567 119 ft 0 kts 353°
2026-05-08 01:44 33.94640 -118.40569 119 ft 2 kts 354°
2026-05-08 01:45 33.94665 -118.40572 119 ft 4 kts 353°
2026-05-08 01:45 33.94703 -118.40578 119 ft 6 kts 353°
2026-05-08 01:45 33.94747 -118.40585 119 ft 6 kts 352°
2026-05-08 01:45 33.94793 -118.40591 119 ft 2 kts 358°
2026-05-08 01:46 33.94797 -118.40580 119 ft 3 kts 109°
2026-05-08 01:46 33.94790 -118.40539 119 ft 6 kts 90°
2026-05-08 01:46 33.94797 -118.40469 118 ft 10 kts 82°
2026-05-08 01:46 33.94809 -118.40363 116 ft 14 kts 81°
2026-05-08 01:47 33.94829 -118.40229 115 ft 17 kts 83°
2026-05-08 01:47 33.94855 -118.40101 114 ft 11 kts 38°
2026-05-08 01:47 33.94918 -118.40066 113 ft 10 kts 66°
2026-05-08 01:48 33.94979 -118.39921 111 ft 10 kts
2026-05-08 01:48 33.95039 -118.39961 111 ft 10 kts 279°
2026-05-08 01:48 33.95027 -118.40104 114 ft 41 kts 263°
2026-05-08 01:48 33.94961 -118.40746 120 ft 111 kts 263°
2026-05-08 01:49 33.94848 -118.41901 237 ft 153 kts 263°
2026-05-08 01:49 33.94729 -118.43117 975 ft 150 kts 261°
2026-05-08 01:49 33.94581 -118.44378 1544 ft 159 kts 263°
2026-05-08 01:49 33.94444 -118.45821 1773 ft 191 kts 263°
2026-05-08 01:50 33.94284 -118.47500 2162 ft 213 kts 263°
2026-05-08 01:50 33.94083 -118.49351 2718 ft 229 kts 263°
2026-05-08 01:50 33.93835 -118.51236 3516 ft 234 kts 262°
2026-05-08 01:50 33.93544 -118.53235 4073 ft 250 kts 262°
2026-05-08 01:51 33.92965 -118.55231 4674 ft 266 kts 236°
2026-05-08 01:51 33.91463 -118.56584 5426 ft 279 kts 201°
2026-05-08 01:51 33.89532 -118.56705 6214 ft 287 kts 167°
2026-05-08 01:51 33.87810 -118.55540 6976 ft 291 kts 133°
2026-05-08 01:52 33.86866 -118.53458 7728 ft 290 kts 99°
2026-05-08 01:52 33.86989 -118.51105 8453 ft 285 kts 66°
2026-05-08 01:52 33.88094 -118.49184 9160 ft 282 kts 41°
2026-05-08 01:52 33.89574 -118.47611 9897 ft 282 kts 41°
2026-05-08 01:53 33.91026 -118.46024 10525 ft 286 kts 42°
2026-05-08 01:53 33.92493 -118.44380 11057 ft 293 kts 44°
2026-05-08 01:53 33.93764 -118.42447 11526 ft 301 kts 55°
2026-05-08 01:53 33.94974 -118.40321 11975 ft 310 kts 55°
2026-05-08 01:54 33.96205 -118.38154 12441 ft 317 kts 55°
2026-05-08 01:54 33.97455 -118.35951 12975 ft 321 kts 56°
2026-05-08 01:54 33.98710 -118.33736 13550 ft 323 kts 56°
2026-05-08 01:54 33.99971 -118.31512 14114 ft 325 kts 56°
2026-05-08 01:55 34.01259 -118.29238 14670 ft 328 kts 55°
2026-05-08 01:55 34.02545 -118.26970 15207 ft 331 kts 55°
2026-05-08 01:55 34.03835 -118.24696 15740 ft 333 kts 55°
2026-05-08 01:55 34.05152 -118.22372 16274 ft 335 kts 55°
2026-05-08 01:56 34.06466 -118.20052 16773 ft 338 kts 55°
2026-05-08 01:56 34.07807 -118.17680 17291 ft 341 kts 54°
2026-05-08 01:56 34.09132 -118.15337 17802 ft 343 kts 54°
2026-05-08 01:56 34.10493 -118.12931 18307 ft 345 kts 55°
2026-05-08 01:57 34.11845 -118.10536 18808 ft 347 kts 55°
2026-05-08 01:57 34.13203 -118.08130 19283 ft 349 kts 55°
2026-05-08 01:57 34.14566 -118.05712 19784 ft 351 kts 55°
2026-05-08 01:57 34.15934 -118.03284 20262 ft 353 kts 55°
2026-05-08 01:58 34.17316 -118.00832 20715 ft 355 kts 54°
2026-05-08 01:58 34.18718 -117.98341 21152 ft 358 kts 55°
2026-05-08 01:58 34.20113 -117.95860 21577 ft 361 kts 54°
2026-05-08 01:58 34.21527 -117.93342 22042 ft 362 kts 54°
2026-05-08 01:59 34.22953 -117.90803 22472 ft 364 kts 54°
2026-05-08 01:59 34.24377 -117.88265 22883 ft 367 kts 54°
2026-05-08 01:59 34.25803 -117.85722 23294 ft 369 kts 54°
2026-05-08 01:59 34.27248 -117.83142 23693 ft 372 kts 54°
2026-05-08 02:00 34.28695 -117.80559 24103 ft 374 kts 54°
2026-05-08 02:00 34.30158 -117.77944 24497 ft 376 kts 54°
2026-05-08 02:00 34.31623 -117.75322 24890 ft 378 kts 54°
2026-05-08 02:00 34.33101 -117.72677 25283 ft 380 kts 54°
2026-05-08 02:01 34.34565 -117.70055 25676 ft 382 kts 54°
2026-05-08 02:01 34.36108 -117.67425 26050 ft 383 kts 52°
2026-05-08 02:01 34.37681 -117.64796 26397 ft 386 kts 52°
2026-05-08 02:01 34.39238 -117.62191 26759 ft 388 kts 52°
2026-05-08 02:02 34.40825 -117.59534 27124 ft 389 kts 52°
2026-05-08 02:02 34.42418 -117.56863 27470 ft 391 kts 52°
2026-05-08 02:02 34.44004 -117.54202 27800 ft 393 kts 52°
2026-05-08 02:02 34.45615 -117.51498 28164 ft 395 kts 52°
2026-05-08 02:03 34.47227 -117.48792 28476 ft 397 kts 52°
2026-05-08 02:03 34.48824 -117.46107 28793 ft 399 kts 52°
2026-05-08 02:03 34.50448 -117.43374 29094 ft 401 kts 53°
2026-05-08 02:03 34.52080 -117.40627 29400 ft 403 kts 52°
2026-05-08 02:04 34.53713 -117.37875 29717 ft 405 kts 53°
2026-05-08 02:04 34.55376 -117.35071 29997 ft 407 kts 52°
2026-05-08 02:04 34.57027 -117.32285 30288 ft 409 kts 53°
2026-05-08 02:04 34.58674 -117.29503 30567 ft 410 kts 53°
2026-05-08 02:05 34.60350 -117.26671 30843 ft 412 kts 53°
2026-05-08 02:05 34.62009 -117.23865 31116 ft 414 kts 53°
2026-05-08 02:05 34.63687 -117.21023 31382 ft 416 kts 53°
2026-05-08 02:05 34.65369 -117.18173 31633 ft 418 kts 53°
2026-05-08 02:06 34.67072 -117.15286 31920 ft 419 kts 53°
2026-05-08 02:06 34.68741 -117.12454 32253 ft 418 kts 53°
2026-05-08 02:06 34.70438 -117.09572 32576 ft 418 kts 53°
2026-05-08 02:06 34.72118 -117.06715 32909 ft 417 kts 52°
2026-05-08 02:07 34.73792 -117.03869 33017 ft 411 kts 52°
2026-05-08 02:07 34.75444 -117.01057 33049 ft 418 kts 53°
2026-05-08 02:07 34.78869 -116.95220 33047 ft 431 kts 53°
2026-05-08 02:08 34.82389 -116.89210 33047 ft 443 kts 53°
2026-05-08 02:08 34.85964 -116.83096 33032 ft 445 kts 53°
2026-05-08 02:09 34.89532 -116.76981 33026 ft 443 kts 52°
2026-05-08 02:09 34.93270 -116.71062 33004 ft 442 kts 45°
2026-05-08 02:10 34.97449 -116.65597 32978 ft 441 kts 45°
2026-05-08 02:10 35.01615 -116.60113 32963 ft 441 kts 45°
2026-05-08 02:11 35.05762 -116.54642 32958 ft 441 kts 45°
2026-05-08 02:11 35.09920 -116.49147 32951 ft 439 kts 45°
2026-05-08 02:12 35.14079 -116.43645 32953 ft 440 kts 45°
2026-05-08 02:12 35.18208 -116.38173 32960 ft 441 kts 45°
2026-05-08 02:13 35.22349 -116.32674 32975 ft 439 kts 46°
2026-05-08 02:13 35.26468 -116.27196 32984 ft 438 kts 46°
2026-05-08 02:14 35.30595 -116.21699 32997 ft 440 kts 46°
2026-05-08 02:14 35.34710 -116.16210 32986 ft 438 kts 46°
2026-05-08 02:15 35.38831 -116.10704 32990 ft 439 kts 46°
2026-05-08 02:15 35.42934 -116.05212 32993 ft 439 kts 46°
2026-05-08 02:16 35.47028 -115.99723 33009 ft 438 kts 46°
2026-05-08 02:16 35.51141 -115.94201 33022 ft 437 kts 45°
2026-05-08 02:17 35.55233 -115.88696 33030 ft 438 kts 45°
2026-05-08 02:17 35.59329 -115.83179 33035 ft 437 kts 45°
2026-05-08 02:18 35.63413 -115.77665 33039 ft 438 kts 46°
2026-05-08 02:18 35.67449 -115.72124 33040 ft 439 kts 46°
2026-05-08 02:19 35.71522 -115.66522 33054 ft 438 kts 46°
2026-05-08 02:19 35.75553 -115.60970 33069 ft 438 kts 46°
2026-05-08 02:20 35.79604 -115.55382 33094 ft 437 kts 46°
2026-05-08 02:20 35.83634 -115.49814 33115 ft 437 kts 46°
2026-05-08 02:21 35.87699 -115.44188 33084 ft 438 kts 46°
2026-05-08 02:21 35.91714 -115.38620 33049 ft 437 kts 46°
2026-05-08 02:22 35.95757 -115.33006 33029 ft 438 kts 46°
2026-05-08 02:22 35.99791 -115.27394 32999 ft 439 kts 46°
2026-05-08 02:23 36.03840 -115.21753 32971 ft 439 kts 46°
2026-05-08 02:23 36.07881 -115.16156 32962 ft 437 kts 43°
2026-05-08 02:24 36.12427 -115.11193 32964 ft 436 kts 39°
2026-05-08 02:24 36.16968 -115.06310 32955 ft 435 kts 39°
2026-05-08 02:25 36.21558 -115.01363 32945 ft 437 kts 39°
2026-05-08 02:25 36.26129 -114.96427 32941 ft 436 kts 39°
2026-05-08 02:26 36.30665 -114.91522 32950 ft 437 kts 39°
2026-05-08 02:26 36.35222 -114.86586 32959 ft 437 kts 39°
2026-05-08 02:27 36.39785 -114.81635 32975 ft 437 kts 39°
2026-05-08 02:27 36.44374 -114.76650 32969 ft 437 kts 39°
2026-05-08 02:28 36.48925 -114.71699 32965 ft 437 kts 39°
2026-05-08 02:28 36.53501 -114.66713 32960 ft 436 kts 39°
2026-05-08 02:29 36.58052 -114.61746 32963 ft 437 kts 39°
2026-05-08 02:29 36.62609 -114.56764 32968 ft 436 kts 39°
2026-05-08 02:30 36.67186 -114.51753 32976 ft 437 kts 39°
2026-05-08 02:30 36.71838 -114.46871 32978 ft 435 kts 32°
2026-05-08 02:31 36.76929 -114.42880 32986 ft 436 kts 30°
2026-05-08 02:31 36.82051 -114.38868 32992 ft 435 kts 30°
2026-05-08 02:32 36.87200 -114.34824 33008 ft 435 kts 30°
2026-05-08 02:32 36.92286 -114.30825 33018 ft 435 kts 30°
2026-05-08 02:33 36.97413 -114.26788 33016 ft 436 kts 30°
2026-05-08 02:33 37.02549 -114.22736 33003 ft 435 kts 30°
2026-05-08 02:34 37.07641 -114.18712 33015 ft 435 kts 30°
2026-05-08 02:34 37.12760 -114.14661 33031 ft 434 kts 30°
2026-05-08 02:35 37.17897 -114.10588 33054 ft 437 kts 30°
2026-05-08 02:35 37.22991 -114.06543 33071 ft 437 kts 30°
2026-05-08 02:36 37.28124 -114.02460 33082 ft 436 kts 30°
2026-05-08 02:36 37.33245 -113.98381 33127 ft 434 kts 30°
2026-05-08 02:37 37.38320 -113.94331 33156 ft 434 kts 30°
2026-05-08 02:37 37.43401 -113.90270 33187 ft 434 kts 30°
2026-05-08 02:38 37.48483 -113.86202 33203 ft 436 kts 30°
2026-05-08 02:38 37.53608 -113.82092 33216 ft 436 kts 30°
2026-05-08 02:39 37.58700 -113.78003 33205 ft 435 kts 30°
2026-05-08 02:39 37.63779 -113.73916 33226 ft 433 kts 30°
2026-05-08 02:40 37.68859 -113.69823 33217 ft 435 kts 30°
2026-05-08 02:40 37.73936 -113.65724 33205 ft 434 kts 30°
2026-05-08 02:41 37.79026 -113.61610 33220 ft 434 kts 30°
2026-05-08 02:41 37.84103 -113.57498 33217 ft 433 kts 30°
2026-05-08 02:42 37.89164 -113.53392 33229 ft 435 kts 30°
2026-05-08 02:42 37.94142 -113.49081 33228 ft 437 kts 37°
2026-05-08 02:43 37.98665 -113.43973 33233 ft 439 kts 38°
2026-05-08 02:43 38.03226 -113.38802 33235 ft 438 kts 38°
2026-05-08 02:44 38.07744 -113.33669 33232 ft 437 kts 38°
2026-05-08 02:44 38.12291 -113.28496 33239 ft 438 kts 38°
2026-05-08 02:45 38.16786 -113.23372 33234 ft 438 kts 38°
2026-05-08 02:45 38.21322 -113.18193 33221 ft 438 kts 38°
2026-05-08 02:46 38.25847 -113.13017 33199 ft 438 kts 38°
2026-05-08 02:46 38.30355 -113.07852 33184 ft 438 kts 38°
2026-05-08 02:47 38.34920 -113.02704 33138 ft 436 kts 33°
2026-05-08 02:47 38.40213 -112.99068 33134 ft 430 kts 19°
2026-05-08 02:48 38.45693 -112.96185 33112 ft 429 kts 19°
2026-05-08 02:48 38.51202 -112.93251 33142 ft 428 kts 19°
2026-05-08 02:49 38.56694 -112.90317 33163 ft 429 kts 19°
2026-05-08 02:49 38.62202 -112.87369 33183 ft 429 kts 19°
2026-05-08 02:50 38.67680 -112.84435 33199 ft 428 kts 19°
2026-05-08 02:50 38.73175 -112.81484 33193 ft 428 kts 19°
2026-05-08 02:51 38.78684 -112.78522 33175 ft 424 kts 19°
2026-05-08 02:51 38.84080 -112.75616 33166 ft 422 kts 19°
2026-05-08 02:52 38.89503 -112.72690 32783 ft 424 kts 19°
2026-05-08 02:52 38.92231 -112.71216 32322 ft 423 kts 19°
2026-05-08 02:52 38.94908 -112.69769 31854 ft 418 kts 19°
2026-05-08 02:53 38.97559 -112.68333 31398 ft 414 kts 19°
2026-05-08 02:53 39.00236 -112.66883 30934 ft 411 kts 19°
2026-05-08 02:53 39.02829 -112.65478 30482 ft 409 kts 19°
2026-05-08 02:53 39.05450 -112.64056 30022 ft 406 kts 19°
2026-05-08 02:54 39.08060 -112.62639 29575 ft 404 kts 19°
2026-05-08 02:54 39.10634 -112.61241 29131 ft 402 kts 19°
2026-05-08 02:54 39.13117 -112.59891 28712 ft 400 kts 19°
2026-05-08 02:54 39.15666 -112.58503 28269 ft 397 kts 19°
2026-05-08 02:55 39.18198 -112.57124 27828 ft 394 kts 19°
2026-05-08 02:55 39.23198 -112.54398 26941 ft 390 kts 19°
2026-05-08 02:55 39.25691 -112.53037 26502 ft 388 kts 19°
2026-05-08 02:56 39.28164 -112.51686 26062 ft 386 kts 19°
2026-05-08 02:56 39.30629 -112.50328 25624 ft 382 kts 20°
2026-05-08 02:56 39.33045 -112.48946 25204 ft 380 kts 20°
2026-05-08 02:56 39.35460 -112.47562 24784 ft 379 kts 20°
2026-05-08 02:57 39.37842 -112.46197 24364 ft 378 kts 20°
2026-05-08 02:57 39.40084 -112.44910 23967 ft 375 kts 20°
2026-05-08 02:57 39.42470 -112.43541 23570 ft 374 kts 20°
2026-05-08 02:57 39.44827 -112.42187 23152 ft 372 kts 20°
2026-05-08 02:58 39.47198 -112.40823 22760 ft 370 kts 20°
2026-05-08 02:58 39.49531 -112.39481 22355 ft 368 kts 20°
2026-05-08 02:58 39.51864 -112.38137 21976 ft 366 kts 20°
2026-05-08 02:58 39.54178 -112.36803 21587 ft 364 kts 20°
2026-05-08 02:59 39.56471 -112.35481 21194 ft 361 kts 20°
2026-05-08 02:59 39.58734 -112.34175 20810 ft 359 kts 20°
2026-05-08 02:59 39.61011 -112.32861 20423 ft 359 kts 20°
2026-05-08 02:59 39.63271 -112.31554 20037 ft 356 kts 20°
2026-05-08 03:00 39.65543 -112.30241 19641 ft 353 kts 20°
2026-05-08 03:00 39.67792 -112.28941 19255 ft 352 kts 20°
2026-05-08 03:00 39.69993 -112.27666 18873 ft 349 kts 20°
2026-05-08 03:00 39.72085 -112.26454 18513 ft 348 kts 20°
2026-05-08 03:01 39.74286 -112.25178 18135 ft 345 kts 20°
2026-05-08 03:01 39.76467 -112.23913 17752 ft 344 kts 19°
2026-05-08 03:01 39.78649 -112.22646 17371 ft 341 kts 20°
2026-05-08 03:01 39.80790 -112.21402 16998 ft 335 kts 19°
2026-05-08 03:02 39.82883 -112.20184 16623 ft 322 kts 19°
2026-05-08 03:02 39.84885 -112.19019 16267 ft 309 kts 19°
2026-05-08 03:02 39.86816 -112.17896 15935 ft 300 kts 19°
2026-05-08 03:02 39.88704 -112.16797 15619 ft 298 kts 19°
2026-05-08 03:03 39.90620 -112.15681 15298 ft 301 kts 19°
2026-05-08 03:03 39.92543 -112.14561 14960 ft 304 kts 19°
2026-05-08 03:03 39.94467 -112.13438 14624 ft 303 kts 19°
2026-05-08 03:03 39.96386 -112.12318 14286 ft 304 kts 19°
2026-05-08 03:04 39.98343 -112.11410 14108 ft 295 kts 12°
2026-05-08 03:04 40.00337 -112.10617 14114 ft 299 kts 12°
2026-05-08 03:04 40.02317 -112.09828 14105 ft 299 kts 12°
2026-05-08 03:04 40.04330 -112.09026 14093 ft 298 kts 12°
2026-05-08 03:05 40.06296 -112.08243 14084 ft 299 kts 12°
2026-05-08 03:05 40.08312 -112.07438 14074 ft 300 kts 12°
2026-05-08 03:05 40.10293 -112.06648 14069 ft 302 kts 12°
2026-05-08 03:05 40.12307 -112.05843 14056 ft 301 kts 12°
2026-05-08 03:06 40.14317 -112.05041 13786 ft 303 kts 12°
2026-05-08 03:06 40.16337 -112.04234 13551 ft 301 kts 12°
2026-05-08 03:06 40.18325 -112.03438 13315 ft 299 kts 12°
2026-05-08 03:06 40.20332 -112.02634 13077 ft 300 kts 12°
2026-05-08 03:07 40.22308 -112.01843 12855 ft 300 kts 12°
2026-05-08 03:07 40.24296 -112.01046 12619 ft 294 kts 12°
2026-05-08 03:07 40.26215 -112.00275 12377 ft 282 kts 12°
2026-05-08 03:07 40.28033 -111.99545 12147 ft 271 kts 12°
2026-05-08 03:08 40.29826 -111.98826 11927 ft 267 kts 11°
2026-05-08 03:08 40.31612 -111.98109 11724 ft 268 kts 11°
2026-05-08 03:08 40.33381 -111.97399 11527 ft 269 kts 11°
2026-05-08 03:08 40.35173 -111.96678 11322 ft 267 kts 12°
2026-05-08 03:09 40.36933 -111.95971 11142 ft 267 kts 12°
2026-05-08 03:09 40.38719 -111.95292 11119 ft 263 kts
2026-05-08 03:09 40.40513 -111.95300 11138 ft 259 kts 351°
2026-05-08 03:09 40.42317 -111.95504 10914 ft 262 kts 350°
2026-05-08 03:10 40.44125 -111.95708 10622 ft 260 kts 351°
2026-05-08 03:10 40.45927 -111.95913 10308 ft 258 kts 351°
2026-05-08 03:10 40.47700 -111.96115 9980 ft 256 kts 351°
2026-05-08 03:10 40.49475 -111.96319 9647 ft 255 kts 351°
2026-05-08 03:11 40.51230 -111.96520 9306 ft 254 kts 352°
2026-05-08 03:11 40.52969 -111.96721 8964 ft 254 kts 352°
2026-05-08 03:11 40.54740 -111.96925 8615 ft 254 kts 352°
2026-05-08 03:11 40.56483 -111.97124 8272 ft 253 kts 353°
2026-05-08 03:12 40.58246 -111.97327 7925 ft 251 kts 353°
2026-05-08 03:12 40.59963 -111.97524 7620 ft 244 kts 353°
2026-05-08 03:12 40.61620 -111.97715 7263 ft 237 kts 353°
2026-05-08 03:12 40.63217 -111.97899 6941 ft 225 kts 354°
2026-05-08 03:13 40.64696 -111.98069 6703 ft 200 kts 354°
2026-05-08 03:13 40.65993 -111.98219 6475 ft 177 kts 354°
2026-05-08 03:13 40.67165 -111.98354 6200 ft 163 kts 354°
2026-05-08 03:13 40.68240 -111.98478 5966 ft 149 kts 354°
2026-05-08 03:14 40.69257 -111.98595 5774 ft 145 kts 354°
2026-05-08 03:14 40.70262 -111.98711 5603 ft 146 kts 354°
2026-05-08 03:14 40.71283 -111.98811 5422 ft 147 kts 356°
2026-05-08 03:14 40.72309 -111.98916 5226 ft 147 kts 354°
2026-05-08 03:15 40.73326 -111.99047 5039 ft 145 kts 355°
2026-05-08 03:15 40.74317 -111.99155 4859 ft 144 kts 355°
2026-05-08 03:15 40.75318 -111.99292 4679 ft 144 kts 354°
2026-05-08 03:15 40.76329 -111.99404 4495 ft 145 kts 355°
2026-05-08 03:16 40.77324 -111.99531 4300 ft 144 kts 355°
2026-05-08 03:16 40.78282 -111.99640 4224 ft 119 kts 355°
2026-05-08 03:16 40.78932 -111.99717 4224 ft 67 kts 355°
2026-05-08 03:16 40.79269 -111.99754 4224 ft 39 kts 359°
2026-05-08 03:17 40.79460 -111.99694 4224 ft 18 kts 32°
2026-05-08 03:17 40.79525 -111.99612 4224 ft 9 kts 56°
2026-05-08 03:17 40.79541 -111.99538 4224 ft 7 kts 99°
2026-05-08 03:17 40.79518 -111.99481 4225 ft 7 kts 142°
2026-05-08 03:18 40.79460 -111.99462 4224 ft 10 kts 174°
2026-05-08 03:18 40.79389 -111.99454 4224 ft 10 kts 175°
2026-05-08 03:18 40.79313 -111.99445 4224 ft 11 kts 175°
2026-05-08 03:18 40.79235 -111.99435 4224 ft 11 kts 176°
2026-05-08 03:19 40.79154 -111.99426 4224 ft 11 kts 175°
2026-05-08 03:19 40.79069 -111.99419 4224 ft 12 kts 173°
2026-05-08 03:19 40.78983 -111.99406 4224 ft 12 kts 175°
2026-05-08 03:19 40.78893 -111.99397 4225 ft 13 kts 175°
2026-05-08 03:20 40.78800 -111.99385 4225 ft 13 kts 176°
2026-05-08 03:20 40.78704 -111.99374 4225 ft 14 kts 175°
2026-05-08 03:20 40.78651 -111.99294 4225 ft 13 kts 84°
2026-05-08 03:20 40.78660 -111.99168 4225 ft 14 kts 85°
2026-05-08 03:21 40.78669 -111.99035 4225 ft 14 kts 84°
2026-05-08 03:21 40.78676 -111.98933 4226 ft 5 kts 85°
2026-05-08 03:21 40.78663 -111.98895 4226 ft 5 kts 161°
2026-05-08 03:21 40.78625 -111.98888 4226 ft 5 kts 174°
2026-05-08 03:22 40.78599 -111.98885 4226 ft 0 kts 175°
2026-05-08 03:22 40.78597 -111.98885 4226 ft 0 kts 174°